23:53
Airports
History
Links
Donate
Help keep this website running!
PayPal
Bitcoin
This page is community maintained. The information is intended for PC simulator navigation or reference.
Always use approved charts for navigation.
SSKZ
Carazinho
Carazinho (SSKZ)
Carazinho, Rio Grande do Sul, Brazil (99500)
(C)
Lat/Lng:28° 19' 20.95" S / 52° 49' 0.9" W
-28.322486 / -52.816917
Elevation:1854'ft / 565mMSL
ID / ICAO:SSKZ
Runways:1
Longest:11-29
Asphalt 1,561m / 5,122ft
Controlled:Yes
Nearby Weather22:00 GMT 2017-12-12
Nearby weather at SBPF, Lauro Kurtz located 30.3 nautical miles from SSKZ
Altimeter: 29.94
Visibility: 6.2 statute miles
Wind: 8 knots (from 090°)
Temp: 26°c / 79°f
Humidity: 41.7%

METAR: SBPF 122200Z 09008KT CAVOK 26/12 Q1014

(Powered by phpweather)
Runway 11 / 29
Dimensions:1561.1 x 22.9m 5122' x 75'ft
Surface:Asphalt
Edge Lights:Low intensity
Runway 11 [A]Runway 29 [B]
Heading:098°TH 278°TH
Lat:
Lng:
28° 19' 17.08"S
52° 49' 29.35"W
28° 19' 24.82"S
52° 48' 32.45"W
User Notes and Comments
28° 19' 20.95" S / 52° 49' 0.9" W
Distance To
Airport ID:
Nearby Airports
4 Agropecuaria Monte Alverne 5.4 NM
SSYQ SW 224°
(C) Aeroclub 18.9 NM
SSAQ ENE 74°
(C) Sarandi 23.8 NM
SSXD N 353°
4 Ibiruba 25.1 NM
SSIR SW 219°
4 Fazenda do Cedro 27.4 NM
SICY WNW 302°
4 Espumoso 28.8 NM
SSEZ S 184°
(U) Lauro Kurtz 30.3 NM
SBPF ( WX ) E 79°
VFR Chart
Flight Planning at SkyVector.com